[[{"header":{"parameterUnit":"m.s-1","parameterCategory":1,"la1":30.2991,"la2":30.254,"lo1":-89.0895,"lo2":-89.0444,"dy":0.0017,"dx":0.0017,"nx":28,"ny":28,"refTime":"2025-02-27T09:00:00:Z","depth":0,"parameterNumber":2,"parameterNumberName":"U-component_of_WINDS"},"data":[0,0,0,0,0,0,0,0,0,0,0,0,0,0,0,0,0,0,0,0,0,0,0,0,0,0,0,0,0,0,0,0,0,0,0,0,0,0,0,0,0,0,0,0,0,0,0,0,0,0,0,0,0,0,0,0,0,0,1.8995,1.8995,0,1.9012,1.9012,1.9012,1.903,1.903,1.903,1.903,1.9049,1.9049,1.9049,0,0,0,0,0,0,0,0,0,0,0,0,0,1.8982,1.8982,1.8995,1.8995,1.8995,1.9012,1.9012,1.9012,1.903,1.903,1.903,1.9031,1.9049,1.9049,1.9049,0,0,0,0,0,0,0,0,0,0,0,0,0,1.8992,1.8982,1.8995,1.9006,1.9007,1.9011,1.9012,1.9012,1.903,1.903,1.903,1.9031,1.9049,1.9049,1.905,1.9044,0,0,1.9051,1.9051,0,0,0,0,0,0,0,0,1.8991,1.8992,1.9004,1.9005,1.9007,1.9019,1.9014,1.9023,1.903,1.9021,1.903,1.9031,1.9039,1.904,1.9042,1.9045,1.9046,1.9051,1.9051,1.9051,1.9051,0,0,0,0,0,0,0,1.8991,1.8992,1.9002,1.9005,1.9006,1.9011,1.9013,1.9016,1.9028,1.9022,1.9023,1.9025,1.904,1.9042,1.9043,1.9046,1.9051,1.9051,1.9051,1.9051,1.9048,1.9048,0,0,0,0,0,0,1.8988,1.8991,1.9001,1.9002,1.9,1.9011,1.9013,1.9015,1.9028,1.903,1.9025,1.9026,1.9041,1.9042,1.9044,1.904,1.9051,1.9052,1.9052,1.9049,1.9048,1.9048,0,0,0,0,0,0,1.8987,1.8989,1.9,1.8997,1.8999,1.9011,1.9012,1.9015,1.9017,1.903,1.9032,1.9025,1.9041,1.9043,1.9045,1.9041,1.9052,1.9052,1.9049,1.9049,1.9048,1.9031,0,0,0,0,0,0,1.8987,1.8988,1.8986,1.8997,1.8999,1.9,1.9012,1.9015,1.9018,1.9019,1.903,1.9033,1.9042,1.9044,1.9045,1.9041,1.9052,1.905,1.9049,1.9048,1.9032,1.903,1.9028,0,0,0,0,0,1.8986,1.898,1.8985,1.8986,1.8996,1.9,1.9001,1.9011,1.9017,1.9015,1.9024,1.9032,1.9041,1.9044,1.9045,1.9042,1.905,1.9049,1.9048,1.9033,1.903,1.9028,0,0,0,0,0,0,1.8968,1.8982,1.8988,1.8984,1.8991,1.9003,1.9,1.9008,1.9013,1.9015,1.9028,1.903,1.903,1.9036,1.9039,1.9039,1.9047,1.9046,1.9035,1.9032,1.9031,1.9029,1.9053,0,0,0,0,0,1.8964,1.8965,1.8977,1.8973,1.8976,1.8988,1.899,1.8997,1.9005,1.9007,1.9016,1.9023,1.9028,1.903,1.9035,1.9033,1.9037,1.9032,1.903,1.9028,1.9028,1.9029,1.9027,1.9046,1.9046,1.9046,0,0,1.8955,1.8962,1.8962,1.897,1.8975,1.8978,1.899,1.8991,1.8993,1.9008,1.901,1.9016,1.9026,1.9026,1.9026,1.9031,1.9024,1.9028,1.9026,1.9027,1.9028,1.9026,1.9025,1.9045,1.9045,1.9045,0,0,1.8939,1.8944,1.8942,1.8948,1.8957,1.8965,1.8965,1.8976,1.8981,1.8983,1.8995,1.8998,1.9005,1.9012,1.9016,1.9005,1.9014,1.9007,1.8997,1.8998,1.8997,1.8995,1.8993,1.8991,1.9006,1.9006,1.9006,0,1.8927,1.8929,1.894,1.8941,1.8945,1.8959,1.8958,1.8963,1.8973,1.8976,1.8981,1.8991,1.8998,1.9001,1.8999,1.9001,1.9003,1.9005,1.8996,1.8995,1.8994,1.8991,1.899,1.9005,1.9005,1.9005,1.9005,0,1.8914,1.8916,1.8914,1.8923,1.8927,1.8927,1.8939,1.8941,1.8949,1.8957,1.8961,1.897,1.8978,1.8979,1.8986,1.8983,1.8986,1.8993,1.9002,1.8991,1.8989,1.8988,1.9004,1.9004,1.9004,1.9005,0,0,1.8886,1.8903,1.8902,1.8907,1.8919,1.8921,1.8923,1.893,1.8932,1.8939,1.8942,1.8949,1.8956,1.8961,1.897,1.8971,1.8963,1.8978,1.8978,1.8975,1.8962,1.8957,1.8955,1.8969,1.8969,1.8969,1.8962,0,1.8873,1.8875,1.8887,1.8886,1.8889,1.8903,1.8905,1.8913,1.8921,1.8926,1.8935,1.894,1.8949,1.8952,1.8954,1.8964,1.8961,1.8964,1.8973,1.8973,1.897,1.8954,1.8948,1.894,1.8961,1.8961,1.8961,0,1.8857,1.8864,1.8864,1.8877,1.8878,1.8879,1.8888,1.8892,1.8902,1.8908,1.8915,1.8925,1.8929,1.8937,1.8944,1.8946,1.8951,1.8956,1.8956,1.8957,1.8966,1.8955,1.8938,1.8937,1.8959,1.8959,1.896,0,1.8838,1.8846,1.8848,1.8852,1.8867,1.8868,1.8874,1.8885,1.8889,1.8897,1.8901,1.8909,1.8914,1.8921,1.8934,1.8938,1.894,1.8949,1.8946,1.8946,1.8945,1.8945,1.8929,1.8948,1.8948,1.8948,1.8948,0,1.8822,1.8822,1.884,1.884,1.8841,1.8855,1.8855,1.8863,1.8873,1.8877,1.889,1.8894,1.891,1.8916,1.8927,1.8931,1.8933,1.8939,1.8942,1.8938,1.8937,1.8941,1.8942,1.8947,1.8947,1.8947,1.8948,0,1.88,1.8812,1.8814,1.8829,1.8833,1.8833,1.8846,1.8848,1.8858,1.8863,1.8865,1.888,1.8888,1.8902,1.8913,1.8921,1.8924,1.8928,1.892,1.8922,1.8918,1.8919,1.8904,1.8903,1.8922,1.8922,1.8922,0,1.8789,1.8789,1.8804,1.8807,1.8813,1.8818,1.8823,1.8837,1.8842,1.8855,1.8856,1.8865,1.8873,1.8885,1.8898,1.8908,1.8913,1.8907,1.8914,1.8911,1.8914,1.8914,1.8914,1.8905,1.8905,1.8905,1.8905,0,1.8768,1.8775,1.878,1.8789,1.8794,1.8802,1.881,1.8812,1.8829,1.8834,1.8842,1.8848,1.8861,1.887,1.8882,1.889,1.8901,1.8903,1.8903,1.8898,1.8894,1.8897,1.8916,1.8903,1.8903,1.8903,1.8903,1.8903,1.8752,1.8753,1.8764,1.8771,1.8779,1.8787,1.879,1.88,1.8807,1.8818,1.8827,1.8835,1.8847,1.8864,1.8872,1.888,1.8884,1.8884,1.8884,1.8884,1.8883,1.8893,1.8882,1.8882,1.8882,1.8882,1.8882,0,1.8733,1.8741,1.8747,1.8758,1.8764,1.8773,1.8783,1.8788,1.8794,1.8805,1.8813,1.8823,1.8833,1.8847,1.8859,1.8862,1.8867,1.8864,1.8864,1.8866,1.8878,1.8877,1.886,1.886,1.886,1.886,1.886,1.886,1.8723,1.8726,1.8734,1.8742,1.8751,1.8758,1.8764,1.8772,1.878,1.8791,1.8799,1.8808,1.8821,1.8834,1.8844,1.8848,1.8852,1.8847,1.8853,1.8863,1.8865,1.8867,1.8867,1.8848,1.8848,1.8841,1.8841,1.8841]},{"header":{"parameterUnit":"m.s-1","parameterCategory":1,"la1":30.2991,"la2":30.254,"lo1":-89.0895,"lo2":-89.0444,"dy":0.0017,"dx":0.0017,"nx":28,"ny":28,"refTime":"2025-02-27T09:00:00:Z","depth":0,"parameterNumber":3,"parameterNumberName":"V-component_of_WINDS"},"data":[0,0,0,0,0,0,0,0,0,0,0,0,0,0,0,0,0,0,0,0,0,0,0,0,0,0,0,0,0,0,0,0,0,0,0,0,0,0,0,0,0,0,0,0,0,0,0,0,0,0,0,0,0,0,0,0,0,0,0.7478,0.748,0,0.7644,0.7646,0.7648,0.7645,0.7643,0.7641,0.7639,0.7806,0.7813,0.7819,0,0,0,0,0,0,0,0,0,0,0,0,0,0.7152,0.7158,0.7478,0.748,0.7482,0.7644,0.7646,0.7648,0.7646,0.7643,0.764,0.7638,0.7804,0.7812,0.782,0,0,0,0,0,0,0,0,0,0,0,0,0,0.7303,0.716,0.7478,0.75,0.7504,0.7643,0.7646,0.7649,0.7646,0.7643,0.764,0.7637,0.7802,0.7811,0.7821,0.7948,0,0,0.7851,0.7855,0,0,0,0,0,0,0,0,0.7294,0.7315,0.7495,0.7499,0.7503,0.7621,0.7592,0.7749,0.7647,0.7592,0.7639,0.7635,0.7747,0.7761,0.7799,0.7956,0.7963,0.7852,0.7857,0.7862,0.7864,0,0,0,0,0,0,0,0.7284,0.7308,0.7544,0.7497,0.7503,0.75,0.7518,0.7622,0.7686,0.7597,0.7597,0.7617,0.7749,0.779,0.7803,0.7965,0.7851,0.786,0.7866,0.787,0.8226,0.8229,0,0,0,0,0,0,0.7269,0.7299,0.7538,0.7549,0.7389,0.7509,0.7529,0.7586,0.7685,0.7697,0.7619,0.7616,0.7775,0.7792,0.7809,0.7959,0.7862,0.7871,0.7876,0.8222,0.8226,0.823,0,0,0,0,0,0,0.7262,0.7291,0.7532,0.7424,0.7454,0.7518,0.7583,0.7591,0.7633,0.7702,0.7713,0.765,0.7773,0.7795,0.7912,0.7965,0.7875,0.7884,0.8218,0.8223,0.8228,0.8263,0,0,0,0,0,0,0.7253,0.7288,0.7339,0.7425,0.746,0.7634,0.7586,0.7597,0.765,0.7647,0.7734,0.7745,0.7772,0.7897,0.7921,0.7977,0.7892,0.8213,0.822,0.8227,0.8257,0.8269,0.8279,0,0,0,0,0,0.7242,0.7344,0.7342,0.7371,0.7526,0.7637,0.7657,0.7686,0.7655,0.7704,0.7748,0.7743,0.7956,0.7909,0.7936,0.7996,0.821,0.8218,0.8226,0.8253,0.8267,0.8279,0,0,0,0,0,0,0.7263,0.7356,0.7355,0.7488,0.7554,0.7636,0.7701,0.7701,0.7778,0.7772,0.7804,0.7824,0.7938,0.7979,0.7926,0.812,0.8078,0.8092,0.8089,0.8103,0.8114,0.81,0.79,0,0,0,0,0,0.7283,0.7368,0.7443,0.7553,0.7587,0.7638,0.7688,0.7704,0.7774,0.7802,0.7854,0.7921,0.8002,0.8055,0.8135,0.8263,0.8279,0.8317,0.8328,0.8336,0.8347,0.8412,0.8428,0.8257,0.8257,0.8256,0,0,0.7326,0.7387,0.7439,0.7559,0.7613,0.7696,0.7662,0.7753,0.7814,0.7816,0.7927,0.7968,0.8044,0.8165,0.8221,0.8202,0.8397,0.8346,0.8353,0.8359,0.8421,0.8438,0.8452,0.8262,0.8261,0.826,0,0,0.7446,0.7503,0.7598,0.7651,0.7732,0.7764,0.7786,0.7867,0.7894,0.8006,0.8007,0.8079,0.8221,0.8272,0.8318,0.845,0.8446,0.8475,0.853,0.8593,0.8606,0.8618,0.8661,0.8676,0.8486,0.8486,0.8486,0,0.7489,0.7617,0.7646,0.7737,0.7787,0.7791,0.7885,0.7935,0.8037,0.807,0.8048,0.822,0.8273,0.8403,0.8434,0.8473,0.8496,0.8465,0.8602,0.8615,0.8626,0.8667,0.8683,0.8489,0.8489,0.8488,0.8488,0,0.7662,0.775,0.7817,0.7913,0.7972,0.8064,0.8104,0.8159,0.8169,0.8202,0.8313,0.8375,0.8464,0.8496,0.8509,0.8627,0.8612,0.8596,0.8554,0.8645,0.8683,0.8699,0.8493,0.8492,0.8491,0.849,0,0,0.7802,0.7911,0.7935,0.7976,0.8062,0.813,0.8219,0.8306,0.8349,0.8419,0.8491,0.8608,0.8591,0.8642,0.8659,0.8714,0.8808,0.8691,0.8693,0.8706,0.8936,0.8945,0.8963,0.8806,0.881,0.8812,0.8928,0,0.7928,0.8088,0.8114,0.8253,0.8331,0.8333,0.841,0.847,0.8502,0.8571,0.8607,0.8686,0.8662,0.8691,0.8746,0.8785,0.8854,0.8778,0.887,0.8873,0.8848,0.8984,0.8996,0.9102,0.8944,0.8946,0.8948,0,0.8097,0.8168,0.8314,0.8384,0.8418,0.8487,0.8565,0.8632,0.8698,0.8717,0.8771,0.878,0.8868,0.8823,0.8943,0.889,0.8929,0.8953,0.8958,0.8966,0.8915,0.8991,0.9137,0.9151,0.8973,0.8971,0.8969,0,0.8178,0.8311,0.8414,0.845,0.8536,0.8583,0.8621,0.8683,0.8731,0.8798,0.8829,0.8906,0.8947,0.9005,0.9033,0.8999,0.9148,0.9107,0.9163,0.9162,0.9193,0.919,0.9343,0.9224,0.9224,0.9223,0.9223,0,0.8313,0.8401,0.845,0.8514,0.861,0.8638,0.8733,0.8769,0.8823,0.889,0.8898,0.896,0.8995,0.9061,0.9083,0.9175,0.9195,0.921,0.9214,0.9208,0.9205,0.9232,0.9224,0.9228,0.9227,0.9226,0.9225,0,0.842,0.8458,0.8569,0.864,0.8659,0.8727,0.8786,0.8845,0.8876,0.896,0.8982,0.9029,0.9107,0.9141,0.9238,0.9252,0.9355,0.9356,0.9333,0.9334,0.9386,0.9379,0.9559,0.9582,0.945,0.9452,0.9453,0,0.8503,0.857,0.8647,0.8693,0.8731,0.8806,0.8853,0.8882,0.8931,0.9007,0.9056,0.9134,0.9198,0.9321,0.9363,0.9435,0.9435,0.9493,0.9446,0.9435,0.943,0.9424,0.9429,0.9501,0.9502,0.9503,0.9504,0,0.8644,0.8657,0.8727,0.8802,0.8859,0.8919,0.8978,0.9014,0.9051,0.9105,0.9185,0.9234,0.933,0.9405,0.9479,0.9515,0.9514,0.9518,0.9534,0.9527,0.9509,0.9514,0.9353,0.9514,0.9513,0.9512,0.9512,0.9511,0.8738,0.8796,0.8857,0.8933,0.898,0.9033,0.909,0.9127,0.9194,0.9274,0.9287,0.937,0.9427,0.9526,0.9564,0.9627,0.9612,0.9637,0.9642,0.9647,0.9647,0.9501,0.9641,0.9641,0.9641,0.964,0.964,0,0.8875,0.8914,0.8984,0.9064,0.9122,0.9117,0.918,0.9228,0.9301,0.9356,0.9417,0.9505,0.9577,0.9622,0.9693,0.9735,0.9736,0.9752,0.9748,0.9755,0.9659,0.9636,0.975,0.975,0.975,0.975,0.975,0.975,0.8953,0.9049,0.9069,0.9185,0.9223,0.9304,0.934,0.9387,0.943,0.9528,0.9587,0.9617,0.9666,0.974,0.9803,0.9814,0.9838,0.9855,0.9865,0.9774,0.9762,0.9751,0.973,0.9861,0.9861,0.9955,0.9956,0.9956]}]]